Other Public Products
Issued by NWS Grand Forks, ND

Home | Current Version | Previous Version | Graphics & Text | Print | Product List | Glossary On
Versions: 1 2 3 4 5 6 7 8 9 10 11 12 13 14 15 16 17 18 19 20 21 22 23 24 25 26 27 28 29 30 31 32 33 34 35 36 37 38 39 40 41 42 43 44 45 46 47 48 49 50
000
FPUS83 KFGF 191010
OPUFGF
PRAIRIE TO PINES WEATHER ROUNDUP
NATIONAL WEATHER SERVICE EASTERN NORTH DAKOTA/GRAND FORKS ND
500 AM CDT SAT APR 19 2014

 **SATELLITE DATA USED TO AUGMENT SKY COVER AT AUTOMATED STATIONS**
 *****  WEATHER ACROSS EASTERN NORTH DAKOTA  *****

CITY           SKY/WX    TMP DP  RH WIND       PRES   REMARKS
GRAND FORKS    MOCLDY    44  35  70 S10       29.72F
GRAND FORKS AF MOCLDY    46  35  66 S16       29.72S
GRAND CITY NWS   N/A     45 N/A N/A S15         N/A
BUXTON         NOT AVBL
DEVILS LAKE    PTCLDY    37  30  75 W8        29.69S
FARGO          CLOUDY    50  36  58 S23G36    29.74S
WAHPETON ARPT  CLOUDY    46  34  61 SE24G30   29.78F
$$

 *****  WEATHER ACROSS CENTRAL AND WESTERN NORTH DAKOTA  *****

CITY           SKY/WX    TMP DP  RH WIND       PRES   REMARKS
JAMESTOWN      MOCLDY    47  40  76 NW22G33   29.71R
BISMARCK       PTCLDY    43  37  79 W13       29.80R
MINOT          PTCLDY    37  34  89 SW10      29.70R
MINOT AFB      PTCLDY    35  35  99 SW10      29.68S
GARRISON         N/A     37  34  89 W7        29.73F
WILLISTON      CLEAR     37  32  82 S8        29.72S
DICKINSON      CLEAR     34  28  79 W9        29.79R
HETTINGER      CLEAR     33  27  78 W7        29.85R
$$

 *****  OTHER OBSERVATIONS NORTHEAST NORTH DAKOTA  *****

CITY           SKY/WX    TMP DP  RH WIND       PRES   REMARKS
WALHALLA       FAIR      36  36 100 SE7       29.71F
LANGDON        CLOUDY    37  32  81 S10       29.69R
CAVALIER       FAIR      37  32  81 SE7       29.72S
GRAFTON        FAIR      41  32  70 SE16      29.72S
CANDO          FAIR      32  28  86 SE3       29.68F
FORT TOTTEN      N/A     40  34  80 SW5       29.95
ROLLA          PTSUNNY   34  34 100 S5        29.67F
RUGBY          FAIR      32  32 100 SW3       29.68R
 ***** THE ABOVE OBSERVATIONS ARE NON NWS ARE NOT QUALITY
        CONTROLLED AND MAY MIS-REPORT RAIN FOR SNOW...
$$

 *****  OTHER OBSERVATIONS SOUTHEAST NORTH DAKOTA *****

CITY           SKY/WX    TMP DP  RH WIND       PRES   REMARKS
COOPERSTOWN    FAIR      41  39  93 S10       29.71R
VALLEY CITY    FAIR      43  39  87 S13       29.72R
OAKES          FAIR      54  45  71 W17       29.74R
GWINNER        SUNNY     46  37  71 SE5       29.73S
SHEYENNE NWR     N/A     49  38  66 S14       29.95S
BUFFALO        NOT AVBL
WYNDMERE       NOT AVBL
 ***** THE ABOVE OBSERVATIONS ARE NON NWS ARE NOT QUALITY
       CONTROLLED AND MAY MIS-REPORT RAIN FOR SNOW...
$$

  *****  WEATHER ACROSS NORTHERN MINNESOTA  *****

CITY           SKY/WX    TMP DP  RH WIND       PRES   REMARKS
FLAG ISLAND    CLOUDY    34  30  86 SE16G28   29.91S WCI  23
WARROAD        CLOUDY    36  30  80 SE20G30   29.88F
ROSEAU         CLOUDY    34  30  86 SE22G33   29.83F WCI  22
HALLOCK        MOCLDY    39  30  70 SE18G25   29.74S
THF RVR FALLS  MOCLDY    43  28  56 SE17      29.78F
HALSTAD          N/A     49  34  56 S30         N/A
FOSSTON        CLOUDY    45  30  57 SE25G35   29.79F
BAUDETTE       MIX PCPN  34  30  85 SE16G26   29.93F WCI  24
WASKISH        LGT RAIN  34  30  86 E13       29.94R WCI  25
CROOKSTON      MOCLDY    46  34  61 S21G30    29.75F
$$
  *****  WEATHER ACROSS CENTRAL AND WEST MINNESOTA  *****

CITY           SKY/WX    TMP DP  RH WIND       PRES   REMARKS
BEMIDJI        CLOUDY    39  30  71 SE14      29.90R
PARK RAPIDS    LGT RAIN  42  32  67 SE25G35   29.91F
WADENA         RAIN      41  34  75 SE21G29   29.90F
DETROIT LAKES  RAIN      43  34  70 SE20G29   29.83S
MOORHEAD       NOT AVBL
FERGUS FALLS   CLOUDY    48  34  57 S28G35    29.80F
ELBOW LAKE     CLOUDY    47  36  66 SE28G37   29.84S
MORRIS MN      CLOUDY    46  37  71 SE31      29.84F
STAPLES        CLOUDY    41  30  65 S21G33    29.93R
WHEATON        CLOUDY    50  41  71 SE23      29.80F
$$
  *****  WEATHER ELSEWHERE ACROSS MINNESOTA  *****

CITY           SKY/WX    TMP DP  RH WIND       PRES   REMARKS
DULUTH         LGT RAIN  33  25  72 E16       30.16F WCI  23
INTRNTL FALLS  LGT SNOW  32  30  92 SE28G33   30.00F VSB 1   WCI  18
ELY            CLOUDY    34  25  69 SE16G24   30.17F WCI  23
CLOQUET        CLOUDY    34  25  69 E15G22    30.10F WCI  24
BRAINERD       LGT RAIN  48  26  42 SE25G37   29.99F
HIBBING        LGT RAIN  37  24  59 SE21G31   30.09F
ALEXANDRIA     LGT RAIN  44  34  67 SE30G41   29.88F
SAINT CLOUD    MOCLDY    45  29  53 SE16G23   30.04F
MINNEAPOLIS    MOCLDY    44  30  57 SE25G35   30.14F
$$

  *****  WEATHER ACROSS SOUTH DAKOTA  *****

CITY           SKY/WX    TMP DP  RH WIND       PRES   REMARKS
SIOUX FALLS    CLOUDY    55  40  56 S21G29    29.93S
BROOKINGS      NOT AVBL
WATERTOWN      CLOUDY    53  41  63 S23G32    29.80F
HURON          PTCLDY    58  42  55 S14G25    29.78R
SISSETON         N/A     47  40  76 S16       29.75F
ABERDEEN       CLOUDY    53  41  63 NW24G36   29.76R
MITCHELL       MOCLDY    59  43  55 S14       29.85R
PIERRE         MOCLDY    47  35  63 W10       29.85R
MOBRIDGE       PTCLDY    45  35  68 NW10      29.78R
RAPID CITY     CLOUDY    45  19  35 NW14      29.91R
$$

  *****  SOME WEATHER IN NEARBY STATES *****

CITY           SKY/WX    TMP DP  RH WIND       PRES   REMARKS
GLASGOW MT     CLOUDY    40  35  83 W24G30    29.77R
GREAT FALLS MT FAIR      32  19  58 SW12      29.91S WCI  23
CHEYENNE WY    CLOUDY    49  31  49 NW10      29.99R
SCOTTSBLUFF NE CLOUDY    53  37  54 NW10      29.91R
OMAHA NE       PTCLDY    54  41  61 S16       30.04S
DES MOINES IA  PTCLDY    50  33  52 SE10      30.16R
DAVENPORT IA   CLEAR     36  29  75 E12       30.31F
CHICAGO IL     CLEAR     38  27  64 NE6       30.36R
EAU CLAIRE WI  PTCLDY    37  26  64 SE16G23   30.28S
LA CROSSE WI   CLEAR     39  27  62 SE13      30.32R
$$

  *****  SOME NATIONAL WEATHER *****

CITY           SKY/WX    TMP DP  RH WIND       PRES   REMARKS
LA GUARDIA NY  MOCLDY    43  34  70 SW7       30.23S
RALEIGH NC     LGT RAIN  47  44  90 NE7       30.15F
ATLANTA GA     LGT RAIN  52  50  93 N14       30.06S FOG
NEW ORLEANS LA PTCLDY    57  53  86 N8        30.12R
OKLAHOMA CITY  MOCLDY    49  42  77 SE7       30.11F
ALBUQUERQUE NM CLOUDY    55  40  56 E6        30.09R
SALT LAKE CITY MOCLDY    50  45  83 N3        29.97S
LOS ANGELES CA FAIR      59  53  80 CALM      29.94F
BOISE ID       FAIR      46  23  40 SE7       29.95F
SEATTLE WA     FAIR      46  36  68 NE6       29.84F
$$

*** WEATHER ACROSS MANITOBA...SASKATCHEWAN AND ONTARIO ***
                ***ONTARIO***

CITY           SKY/WX    TMP DP  RH WIND       PRES   REMARKS
GERALDTON      MOCLDY    16  12  86 SE2       30.43F
THUNDER BAY    CLOUDY    27  25  93 E9        30.42S WCI  17
SIOUX LOOKOUT  CLOUDY    34  19  55 SE8G18    30.18F
TORONTO        CLEAR     32  27  80 NW6       30.38R
BIG TROUT LK   CLEAR     23   9  54 SE10      30.34F WCI  12
PICKLE LAKE    NOT AVBL
DRYDEN         LGT SNOW  30  30 100 SE18G25   30.12F WCI  18
KENORA         FRZ RAIN  32  30  93 SE18G35   29.95F WCI  20
$$
                *** MANITOBA***

CITY           SKY/WX    TMP DP  RH WIND       PRES   REMARKS
BRANDON        CLOUDY    34  32  93 E9        29.68F
DAUPHIN        LGT RAIN  34  32  93 SE14G22   29.68F WCI  24
ISLAND LAKE    CLOUDY    30  14  51 E7        30.10F WCI  23
PILOT MOUND      N/A     36  32  87 SE5         N/A
THE PAS        LGT SNOW  30  30 100 E12G20    29.83F VSB 1   WCI  21
THOMPSON       MOCLDY    27  10  50 E9        30.07F WCI  17
WINNIPEG       CLOUDY    37  30  75 SE21G29   29.77F
LYNN LAKE      CLEAR     19   3  49 E7        30.02F WCI  10
CHURCHILL      CLEAR      7   5  92 S9        30.32F WCI  -7
GILLAM         PTCLDY    19  10  68 E6        30.23F WCI  11
$$
                ***SASKATCHEWAN***

CITY           SKY/WX    TMP DP  RH WIND       PRES   REMARKS
ESTEVAN        CLEAR     34  34 100 SW8       29.65S
KINDERSLEY     CLOUDY    32  30  93 NW10G20   29.78R FOG     WCI  24
LLOYDMINSTER   CLOUDY    30  30 100 W3        29.78S FOG
PRINCE ALBERT  FLURRIES  28  27  93 NE10      29.74S WCI  19
REGINA         CLOUDY    39  37  93 W14       29.59R



USA.gov is the U.S. government's official web portal to all federal, state and local government web resources and services.